Volver al catálogo

CZ-3C DEB

LostGTO
NORAD 40857·DEBRIS·🇨🇳 China

Lanzado Feb 24, 2012 desde Xichang Satellite Launch Center

Loading…

TLE

ObsoletoSource: Space-Track

Época: Jul 18, 2023, 05:05 UTC

1 40857U 12008X   23199.21237431 -.00000012  00000-0  44380-2 0  9997
2 40857  20.2183  64.8076 7139932 213.8342  67.5054  2.21591095 70109

Sigue CZ-3C DEB en tiempo real con AllMySat

Download on the App Store